Tracking 18840 objects as of 18-November-2017
HD Live streaming from Space Station
objects crossing your sky now

SUPERBIRD B1

Track SUPERBIRD B1 now!
SUPERBIRD B1 is classified as:


NORAD ID: 21893
Int'l Code: 1992-010A
Perigee: 36,106.2 km
Apogee: 36,169.6 km
Inclination: 12.7 °
Period: 1,453.7 minutes
Semi major axis: 42508 km
RCS: 7.9433 m2 (large)
Launch date: February 26, 1992
Source: Japan (JPN)
Launch site: FRENCH GUIANA (FRGUI)
aabbcc
Your satellite tracking list
Your tracking list is empty




NASA's NSSDC Master Catalog

Two Line Element Set (TLE):
1 21893U 92010A   17321.29133670 -.00000255  00000-0  00000+0 0  9992
2 21893  12.7358  30.6195 0007455  52.9144  40.0233  0.99056578 93284
Source of the keplerian elements: AFSPC